CAPE
0 0 0 0 0 0 0 0 0 0 0 0 0 0 0 0 0 0 0 0 0 0 0 0 0 0 0 0 0 0 0 0 0 0 0 0 0 0 0 0 0 0 0
0 0 0 0 0 0 0 0 0 0 0 0 0 0 0 0 0 0 0 0 0 0 0 0 0 0 0 0 0 0 0 0 0 0 0 0 0 0 0 0 0 0 0
0 0 0 0 0 0 0 0 0 0 0 0 0 0 0 0 0 0 0 0 0 0 0 0 0 0 0 0 0 0 0 0 0 0 0 0 0 0 0 0 0 0 0
0 0 0 0 0 0 0 0 0 0 0 0 0 0 0 0 0 0 0 0 0 0 0 0 0 0 0 0 0 0 0 0 0 0 0 0 0 0 0 2 0 0 1
0 0 0 0 0 0 0 0 0 0 0 0 0 0 0 0 0 0 0 0 0 0 0 0 0 0 0 0 0 0 0 0 0 0 0 0 0 0 1 0 0 1 0
0 0 0 0 0 0 0 0 0 0 0 0 0 0 0 0 0 0 0 0 0 0 0 0 0 0 0 0 0 0 0 0 0 0 0 0 0 6 0 0 1 3 6
0 0 0 0 0 0 0 0 0 0 0 0 0 0 0 0 0 0 0 0 0 0 0 0 0 0 0 0 0 0 0 0 0 0 0 4 3 0 0 0 2 10 1
0 0 0 0 0 0 0 0 0 0 0 0 0 0 0 0 0 0 0 0 0 0 0 0 0 0 0 0 0 0 0 0 0 0 0 0 2 0 0 2 3 1 0
0 0 0 0 0 0 0 0 0 0 0 0 0 0 0 0 0 0 0 0 0 0 0 0 0 0 0 0 0 0 0 0 0 2 4 5 0 0 5 17 11 2 0
0 0 0 0 0 0 0 0 0 0 0 0 0 0 0 0 0 0 0 0 0 0 0 0 0 0 0 0 0 0 0 0 0 0 0 0 0 0 16 17 8 12 6
0 0 0 0 0 0 0 0 0 0 0 0 0 0 0 0 0 0 0 0 0 0 0 0 0 3 0 0 0 0 0 13 0 0 0 0 2 0 3 4 2 9 16
0 0 0 0 0 0 0 0 0 0 0 0 0 0 0 0 0 0 0 0 0 0 0 0 0 2 2 0 0 0 6 1 5 13 9 1 0 0 3 0 0 3 5
0 0 0 0 0 0 0 0 0 0 0 0 0 0 0 0 0 0 0 0 0 0 0 0 1 0 0 0 0 9 0 0 0 0 0 0 7 3 0 0 0 0 0
0 0 0 0 0 0 0 0 0 0 0 0 0 0 0 0 0 0 0 0 0 0 0 0 0 0 0 0 0 2 2 0 0 0 0 0 0 0 1 5 0 0 0
0 0 0 0 0 0 0 0 0 0 0 0 0 0 0 0 0 0 0 0 0 0 0 0 0 0 0 0 0 0 0 0 0 0 0 0 0 1 0 0 1 0 1
0 0 0 0 0 0 0 0 0 0 0 0 0 0 0 0 0 0 0 0 0 0 0 0 0 0 0 0 0 0 0 0 2 0 0 0 3 1 0 0 3 2 1
0 0 0 0 0 0 0 0 0 0 0 0 0 0 0 0 0 0 0 0 0 0 0 0 0 0 0 0 0 0 0 0 0 0 3 0 0 2 1 2 0 1 2
0 0 0 0 0 0 0 0 0 0 0 0 0 0 0 0 0 0 0 0 0 0 0 0 0 0 0 0 0 0 0 0 0 0 0 0 0 0 0 0 1 0 0
0 0 0 0 0 0 0 0 0 0 0 0 0 0 0 0 0 0 0 0 0 0 0 0 0 0 0 0 0 0 0 0 0 0 0 0 0 0 0 2 1 0 0
0 0 0 0 0 0 0 0 0 0 0 0 0 0 0 0 0 0 0 0 0 0 0 0 0 0 0 0 0 0 0 0 0 0 0 0 0 0 0 0 1 1 0
0 0 0 0 0 0 0 0 0 0 0 0 0 0 0 0 0 0 0 0 0 0 0 0 0 0 0 0 0 0 0 0 0 0 0 0 0 0 0 0 0 3 1
0 0 0 0 0 0 0 0 0 0 0 0 0 0 0 0 0 0 0 0 1 0 0 0 0 0 0 0 0 0 0 0 0 0 0 0 0 0 0 0 0 2 2
0 0 0 0 0 0 0 0 0 0 0 0 0 0 0 0 0 0 0 1 1 1 0 0 0 0 0 0 0 0 0 0 0 0 0 0 0 0 0 0 0 2 3
0 0 0 0 0 0 0 1 0 0 0 0 1 0 0 0 0 1 0 1 0 1 3 2 0 0 0 0 0 0 0 0 0 0 0 0 0 0 0 0 0 0 1
0 0 0 0 0 1 1 0 0 0 0 0 0 0 0 0 0 0 2 0 0 1 1 0 0 0 0 0 0 0 0 0 0 0 0 0 0 0 0 0 0 0 0
0 0 0 0 2 2 0 0 0 0 0 0 1 2 2 3 2 1 1 1 0 2 1 0 0 0 0 0 0 1 0 0 0 0 0 0 0 0 0 0 0 0 0
CIN
-0 -0 -0 -0 -0 -0 -0 -0 -0 -0 -0 -0 -0 -0 -0 -0 -0 -0 -0 -0 -0 -0 -0 -0 -0 -0 -0 -0 -0 -0 -0 -0 -0 -0 -0 -0 -0 -0 -0 -0 -0 -0 -0
-0 -0 -0 -0 -0 -0 -0 -0 -0 -0 -0 -0 -0 -0 -0 -0 -0 -0 -0 -0 -0 -0 -0 -0 -0 -0 -0 -0 -0 -0 -0 -0 -0 -0 -0 -0 -0 -0 -0 -0 -0 -0 -0
-0 -0 -0 -0 -0 -0 -0 -0 -0 -0 -0 -0 -0 -0 -0 -0 -0 -0 -0 -0 -0 -0 -0 -0 -0 -0 -0 -0 -0 -0 -0 -0 -0 -0 -0 -0 -0 -0 -0 -0 -0 -0 -0
-0 -0 -0 -0 -0 -0 -0 -0 -0 -0 -0 -0 -0 -0 -0 -0 -0 -0 -0 -0 -0 -0 -0 -0 -0 -0 -0 -0 -0 -0 -0 -0 -0 -0 -0 -0 -0 -0 -0 -3 -0 -0 -1
-0 -0 -0 -0 -0 -0 -0 -0 -0 -0 -0 -0 -0 -0 -0 -0 -0 -0 -0 -0 -0 -0 -0 -0 -0 -0 -0 -0 -0 -0 -0 -0 -0 -0 -0 -0 -0 -0 -1 -0 -0 -1 -1
-0 -0 -0 -0 -0 -0 -0 -0 -0 -0 -0 -0 -0 -0 -0 -0 -0 -0 -0 -0 -0 -0 -0 -0 -0 -0 -0 -0 -0 -0 -0 -0 -0 -0 -0 -0 -0 -1 -0 -0 -1 -1 -1
-0 -0 -0 -0 -0 -0 -0 -0 -0 -0 -0 -0 -0 -0 -0 -0 -0 -0 -0 -0 -0 -0 -0 -0 -0 -0 -0 -0 -0 -0 -0 -0 -0 -0 -0 -2 -1 -0 -0 -0 -0 -1 -0
-0 -0 -0 -0 -0 -0 -0 -0 -0 -0 -0 -0 -0 -0 -0 -0 -0 -0 -0 -0 -0 -0 -0 -0 -0 -0 -0 -0 -0 -0 -0 -0 -0 -0 -0 -1 -2 -0 -0 -0 -0 -2 -0
-0 -0 -0 -0 -0 -0 -0 -0 -0 -0 -0 -0 -0 -0 -0 -0 -0 -0 -0 -0 -0 -0 -0 -0 -0 -0 -0 -0 -0 -0 -0 -0 -0 -0 -0 -0 -0 -0 -0 -2 -1 -2 -0
-0 -0 -0 -0 -0 -0 -0 -0 -0 -0 -0 -0 -0 -0 -0 -0 -0 -0 -0 -0 -0 -0 -0 -0 -0 -0 -0 -0 -0 -0 -0 -0 -0 -0 -0 -0 -0 -0 -1 -2 -2 -0 -1
-0 -0 -0 -0 -0 -0 -0 -0 -0 -0 -0 -0 -0 -0 -0 -0 -0 -0 -0 -0 -0 -0 -0 -0 -0 -0 -0 -0 -0 -0 -0 -2 -4 -0 -0 -0 -1 -2 -2 -1 -2 -0 -0
-0 -0 -0 -0 -0 -0 -0 -0 -0 -0 -0 -0 -0 -0 -0 -0 -0 -0 -0 -0 -0 -0 -0 -0 -0 -0 -0 -0 -0 -0 -0 -2 -8 -1 -1 -2 -2 -0 -3 -0 -0 -2 -4
-0 -0 -0 -0 -0 -0 -0 -0 -0 -0 -0 -0 -0 -0 -0 -0 -0 -0 -0 -0 -0 -0 -0 -0 -0 -0 -0 -0 -0 -0 -0 -0 -0 -0 -0 -1 -1 -3 -0 -0 -0 -0 -0
-0 -0 -0 -0 -0 -0 -0 -0 -0 -0 -0 -0 -0 -0 -0 -0 -0 -0 -0 -0 -0 -0 -0 -0 -0 -0 -0 -0 -1 -5 -7 -0 -0 -0 -0 -5 -0 -0 -2 -2 -3 -1 -0
-0 -0 -0 -0 -0 -0 -0 -0 -0 -0 -0 -0 -0 -0 -0 -0 -0 -0 -0 -0 -0 -0 -0 -0 -0 -0 -0 -0 -0 -0 -0 -0 -16 -3 -0 -0 -2 -3 -0 -0 -2 -0 -1
-0 -0 -0 -0 -0 -0 -0 -0 -0 -0 -0 -0 -0 -0 -0 -0 -0 -0 -0 -0 -0 -0 -0 -0 -0 -0 -0 -0 -0 -0 -0 -0 -6 -1 -0 -3 -3 -3 -1 -0 -2 -1 -1
-0 -0 -0 -0 -0 -0 -0 -0 -0 -0 -0 -0 -0 -0 -0 -0 -0 -0 -0 -0 -0 -0 -0 -0 -0 -0 -0 -0 -0 -0 -0 -0 -0 -0 -6 -0 -0 -1 -3 -3 -0 -2 -1
-0 -0 -0 -0 -0 -0 -0 -0 -0 -0 -0 -0 -0 -0 -0 -0 -0 -0 -0 -0 -0 -0 -0 -0 -0 -0 -0 -0 -0 -0 -0 -0 -0 -6 -0 -0 -0 -1 -1 -1 -3 -0 -0
-0 -0 -0 -0 -0 -0 -0 -0 -0 -0 -0 -0 -0 -0 -0 -0 -0 -0 -0 -0 -0 -0 -0 -0 -0 -0 -0 -0 -0 -0 -0 -0 -0 -0 -0 -0 -0 -0 -1 -1 -1 -0 -0
-0 -0 -0 -0 -0 -0 -0 -0 -0 -0 -0 -0 -0 -0 -0 -0 -0 -0 -0 -0 -0 -0 -0 -0 -0 -0 -0 -0 -0 -0 -0 -0 -0 -0 -0 -0 -0 -0 -0 -0 -1 -1 -1
-0 -0 -0 -0 -0 -0 -0 -0 -0 -0 -0 -0 -0 -0 -0 -0 -0 -0 -0 -0 -0 -2 -0 -0 -0 -0 -0 -0 -0 -0 -0 -0 -0 -0 -0 -0 -0 -0 -0 -0 -0 -0 -0
-0 -0 -0 -0 -0 -0 -0 -0 -0 -0 -0 -0 -0 -0 -0 -0 -0 -0 -0 -0 -2 -2 -2 -0 -0 -0 -0 -0 -0 -0 -0 -0 -0 -0 -0 -0 -0 -0 -0 -0 -0 -0 -0
-0 -0 -0 -0 -0 -0 -0 -0 -0 -0 -0 -0 -0 -0 -0 -0 -0 -0 -0 -4 -5 -3 -0 -7 -0 -0 -0 -0 -3 -8 -0 -0 -2 -0 -0 -0 -0 -0 -0 -0 -0 -0 -0
-0 -0 -0 -0 -0 -0 -0 -0 -0 -0 -0 -0 -2 -1 -0 -0 -2 -2 -5 -5 -5 -6 -5 -8 -0 -0 -0 -0 -5 -1 -1 -0 -0 -0 -0 -0 -0 -0 -0 -0 -0 -1 -0
-0 -0 -0 -0 -0 -0 -0 -0 -0 -0 -0 -0 -0 -0 -0 -0 -0 -4 -5 -4 -6 -9 -11 -1 -11 -0 -0 -0 -1 -0 -0 -0 -0 -0 -0 -0 -0 -0 -0 -0 -1 -1 -1
-0 -0 -0 -0 -0 -0 -1 -0 -0 -1 -0 -2 -3 -4 -2 -3 -4 -3 -3 -3 -1 -6 -4 -8 -0 -0 -0 -0 -5 -3 -0 -0 -0 -0 -0 -0 -0 -0 -0 -0 -0 -0 -0
Wind_Speed
9 7 8 6 6 5 5 4 4 3 2 1 1 1 2 3 4 4 4 3 5 4 4 4 5 5 3 4 4 4 4 4 8 8 6 7 10 12 12 12 13 13 10
8 7 8 7 6 5 6 5 4 3 3 1 1 2 2 3 3 3 4 4 5 5 5 5 5 5 5 5 3 5 6 7 6 11 8 8 11 13 13 13 11 11 11
9 9 9 9 7 6 6 5 5 3 3 1 1 2 2 3 3 3 3 6 6 6 6 6 5 5 5 3 4 5 5 7 7 8 9 8 11 12 12 12 12 13 11
10 10 8 7 7 6 6 6 5 4 2 3 1 2 1 3 3 2 6 6 6 7 6 6 6 6 4 4 5 4 6 6 7 7 9 10 10 12 10 10 11 11 12
9 9 9 7 6 7 6 6 5 4 4 3 3 3 3 3 2 5 4 5 7 8 7 8 6 4 8 6 3 5 5 4 6 8 10 10 10 10 11 9 12 12 13
9 9 9 9 7 6 6 6 6 6 5 6 4 4 3 4 10 8 3 3 6 9 9 6 5 8 3 6 4 7 6 6 9 9 10 11 14 10 9 10 12 13 14
10 9 10 9 9 8 7 7 6 6 5 5 4 4 4 3 11 8 5 2 5 9 9 6 6 7 8 7 9 13 12 17 13 10 12 11 13 10 12 14 15 14 15
10 10 10 10 10 9 8 7 6 5 5 5 5 4 3 1 12 9 4 4 6 8 6 6 6 6 5 6 7 9 11 12 13 11 12 12 10 13 14 14 15 13 13
12 11 11 11 10 9 9 7 6 6 5 5 5 5 4 5 12 10 4 3 6 7 6 6 6 6 8 12 8 10 12 12 15 22 24 26 27 27 22 12 8 9 12
13 12 11 10 10 9 7 7 5 4 4 3 3 4 5 3 15 12 5 2 4 5 5 6 11 7 8 13 9 10 11 12 11 14 15 16 18 16 19 9 7 9 11
13 11 11 11 9 8 7 6 5 5 5 6 5 4 5 6 11 14 10 3 2 3 5 6 5 14 16 20 20 8 10 12 13 12 11 10 10 10 8 8 10 10 12
13 13 12 10 9 8 7 6 6 6 5 5 5 4 4 3 9 15 14 10 4 4 6 5 6 17 21 21 17 18 18 11 8 8 9 8 8 9 7 10 12 12 10
13 14 13 11 10 8 9 7 5 7 5 4 3 2 2 4 4 14 15 11 8 6 4 9 17 18 21 15 18 19 11 4 5 6 8 9 8 10 12 11 10 12 12
14 13 11 11 9 8 5 5 5 4 4 3 3 3 3 2 2 3 3 3 4 5 4 6 8 14 14 12 8 6 3 3 3 5 6 7 7 8 9 9 10 10 11
11 11 11 10 11 9 8 7 4 4 4 4 3 3 3 2 3 5 2 1 2 3 5 5 6 6 7 3 3 4 3 4 5 3 4 7 9 9 9 9 10 10 10
10 10 8 8 8 7 7 3 7 9 8 9 8 2 1 2 2 1 4 7 10 10 4 5 7 7 5 4 5 5 4 5 6 5 6 7 9 10 10 9 10 10 10
9 8 7 8 8 9 5 6 7 3 6 6 7 8 10 7 6 6 8 9 11 11 6 7 7 5 4 5 4 5 5 3 5 6 8 7 8 9 11 9 9 10 10
10 11 8 8 7 7 7 5 4 6 5 4 10 11 13 12 11 10 8 8 6 7 6 6 4 3 3 4 4 4 4 5 6 7 7 7 7 8 10 10 9 10 11
9 6 7 7 6 6 6 3 4 4 3 2 3 6 8 13 12 11 11 5 6 6 5 4 3 3 4 4 4 5 6 6 6 5 5 6 7 8 9 10 10 13 12
6 9 8 8 8 7 5 6 4 4 5 4 4 3 7 6 5 6 8 8 8 8 4 4 3 3 4 5 5 5 5 5 5 5 6 6 7 7 8 11 11 11 10
6 8 11 8 8 7 7 5 5 6 5 4 4 4 5 4 3 1 2 3 4 4 3 2 3 5 3 3 5 6 6 6 7 7 7 6 5 7 9 10 11 11 11
8 8 8 8 8 8 6 5 7 5 4 4 3 2 8 3 2 3 5 6 3 3 3 3 3 3 4 5 6 5 6 7 7 7 7 6 7 9 9 10 10 11 11
8 9 8 6 6 8 6 6 6 4 4 3 2 3 6 6 6 6 5 3 3 3 2 2 3 4 4 5 5 6 7 8 8 6 6 7 9 9 9 10 11 11 11
8 9 9 7 6 6 6 7 3 4 4 3 4 3 3 3 4 4 4 3 3 3 3 3 3 7 7 6 6 7 6 6 7 7 7 6 8 11 9 10 11 13 12
9 8 8 8 7 6 6 5 5 3 3 4 3 4 4 4 3 4 4 3 3 3 4 4 5 6 8 9 8 8 9 8 3 3 3 8 10 12 11 11 12 12 13
8 7 6 6 5 6 5 4 3 3 3 3 3 3 4 3 3 4 3 3 3 3 4 4 6 7 7 7 9 9 3 4 6 7 6 7 9 10 10 11 14 11 13
Wind_Direction
147 155 137 136 123 137 132 138 134 123 107 93 60 340 34 27 26 352 358 346 355 340 339 351 330 338 339 327 309 307 322 317 305 306 317 329 324 322 319 315 314 304 303
160 151 139 130 151 158 146 149 130 167 145 136 345 325 12 24 7 350 348 342 337 329 333 326 332 335 324 307 326 342 324 312 306 312 317 325 318 314 309 307 305 305 302
163 156 154 155 162 169 155 154 157 169 178 252 329 323 354 11 319 324 353 1 343 327 320 337 314 314 301 311 360 317 318 314 316 309 316 317 309 308 310 312 313 318 311
162 171 166 163 169 162 159 163 166 177 218 212 206 271 261 268 306 321 33 359 329 322 319 304 286 277 331 327 301 311 300 307 304 312 310 307 302 302 304 307 314 309 308
177 178 163 165 172 164 157 168 175 170 228 208 216 234 256 272 281 76 38 350 321 314 300 289 299 319 280 259 275 269 323 329 316 303 299 298 298 302 306 316 309 307 304
189 181 163 171 178 164 164 182 183 189 204 213 221 243 244 275 128 120 90 342 312 302 295 304 302 304 340 243 285 15 318 308 303 296 294 291 293 296 310 313 305 309 308
194 187 176 175 184 175 182 187 192 199 212 213 226 233 229 158 156 151 132 305 301 283 285 307 318 333 15 14 357 333 318 313 296 289 286 287 304 310 310 303 298 300 302
192 192 184 179 188 186 188 194 187 196 202 210 221 220 223 268 165 160 172 274 282 282 302 316 342 339 54 10 341 324 317 310 309 302 293 291 300 303 292 286 288 293 294
198 196 191 183 193 191 194 190 188 193 201 207 213 207 213 147 174 176 193 301 295 308 315 347 338 304 349 353 336 319 309 304 304 306 307 307 304 297 289 294 292 303 308
198 198 192 187 193 196 191 184 192 178 200 208 224 203 224 188 181 182 189 283 308 305 328 325 303 317 338 331 325 311 306 302 305 308 302 300 296 288 301 299 310 310 305
189 194 194 187 190 191 182 177 172 185 184 210 216 213 232 221 166 183 185 222 258 308 303 299 303 313 325 320 317 301 292 301 301 295 288 286 302 302 305 313 314 304 300
190 191 192 186 185 191 183 176 174 187 206 210 216 225 210 226 172 192 195 205 243 265 278 287 299 308 312 311 307 293 297 308 298 308 306 299 299 299 305 305 300 292 286
189 189 189 185 185 186 182 179 190 189 190 202 197 201 205 216 193 182 195 204 233 253 279 288 309 314 303 299 289 288 289 264 290 304 305 308 318 315 307 296 297 299 296
192 190 184 180 182 185 174 181 184 189 179 181 197 203 196 210 175 140 161 173 308 307 325 326 293 282 276 266 270 287 267 245 240 281 297 307 306 307 307 312 308 310 307
188 188 189 184 185 187 186 195 186 187 173 172 188 178 182 183 103 98 78 323 293 290 306 295 292 286 288 286 290 287 286 295 296 271 292 306 305 309 311 312 310 307 306
198 190 181 184 179 184 183 129 70 123 125 110 109 112 64 130 104 270 274 276 285 294 291 279 276 273 283 293 298 300 296 301 311 310 300 303 310 309 307 313 313 313 307
192 180 180 181 177 180 179 171 165 139 152 174 184 210 221 227 232 248 265 281 291 287 253 258 270 274 288 291 293 295 299 296 309 306 306 308 306 308 312 310 312 312 312
178 180 186 178 167 160 168 179 156 172 186 209 219 218 223 225 232 246 262 287 283 268 222 243 272 276 282 290 291 297 305 304 301 303 306 306 309 311 312 307 308 312 312
176 163 167 148 142 130 109 145 176 175 199 201 152 190 209 213 219 234 241 232 252 266 274 275 271 286 288 294 301 300 294 291 294 303 309 311 312 309 311 315 312 310 307
158 131 135 145 139 135 156 192 179 196 207 204 209 202 180 179 193 220 227 219 231 244 260 273 284 291 295 294 292 289 293 303 309 308 309 305 302 316 315 311 310 309 304
129 147 145 141 146 154 176 183 189 210 206 204 212 185 179 180 204 213 245 248 246 245 250 272 280 278 276 289 300 302 305 304 306 308 300 306 315 312 309 308 304 303 302
148 150 159 154 152 167 169 172 212 213 196 203 191 179 150 167 207 233 241 243 227 227 235 249 269 283 290 295 298 298 303 304 300 300 312 314 313 310 304 301 303 304 303
146 154 164 158 148 143 153 200 215 183 195 189 185 184 172 200 216 225 233 231 227 228 240 247 260 273 275 272 277 286 287 290 298 311 311 308 301 298 303 299 295 300 302
145 152 158 150 138 163 185 205 213 191 189 189 200 196 205 218 228 233 235 232 225 239 241 243 251 266 277 276 272 275 275 279 287 292 292 300 297 295 291 293 296 291 289
137 151 154 158 155 174 200 194 190 208 184 191 200 210 228 234 234 239 240 221 218 237 248 255 263 265 276 283 283 281 281 295 299 306 278 286 285 285 282 282 285 287 286
144 149 145 141 162 181 202 180 189 187 206 213 212 218 228 240 242 249 238 228 233 254 266 259 270 280 293 293 290 297 329 282 267 257 265 272 281 284 282 286 293 291 288